Felix-Klein-Gymnasium, Gttingen, 150m NN
Donnes mto: Actuelle Montag, 19.11.2018 20:15
Date Horaire Temp. E. Hum. E. P.atmo. Pluie Vent Direction Direction Ensoleilleme P. de rose Temp au vent Rafales
19.11.2018 20:15 3,4 C 76 % 1016,1 hPa 0,0 mm 9,8 km/h (2 Bft) E 97 0 min -0,4 C 0,8 C 25,7 km/h (4 Bft)
19.11.2018 20:00 3,4 C 77 % 1015,9 hPa 0,0 mm 8,6 km/h (2 Bft) E 82 0 min -0,2 C 1,1 C 20,9 km/h (4 Bft)
19.11.2018 19:45 3,5 C 77 % 1016,1 hPa 0,0 mm 8,9 km/h (2 Bft) E 87 0 min -0,1 C 1,1 C 24,1 km/h (4 Bft)
19.11.2018 19:30 3,5 C 77 % 1016,1 hPa 0,0 mm 5,1 km/h (1 Bft) E-SE 114 0 min -0,1 C 2,3 C 24,1 km/h (4 Bft)
19.11.2018 19:15 3,6 C 77 % 1016,2 hPa 0,0 mm 4,5 km/h (1 Bft) NE 51 0 min -0,0 C 3,6 C 17,7 km/h (3 Bft)
19.11.2018 19:00 3,5 C 77 % 1016,1 hPa 0,0 mm 6,0 km/h (2 Bft) E 89 0 min -0,1 C 2,0 C 25,7 km/h (4 Bft)
19.11.2018 18:45 3,4 C 78 % 1016,2 hPa 0,0 mm 0,6 km/h (0 Bft) E-NE 58 0 min -0,1 C 3,4 C 9,7 km/h (2 Bft)
19.11.2018 18:30 3,3 C 77 % 1016,2 hPa 0,0 mm 1,2 km/h (1 Bft) NE 45 0 min -0,3 C 3,3 C 11,3 km/h (2 Bft)
19.11.2018 18:15 3,4 C 76 % 1016,2 hPa 0,0 mm 2,5 km/h (1 Bft) E-NE 63 0 min -0,4 C 3,4 C 14,5 km/h (3 Bft)
19.11.2018 18:00 3,4 C 75 % 1016,2 hPa 0,0 mm 4,6 km/h (1 Bft) E-NE 63 0 min -0,6 C 2,4 C 20,9 km/h (4 Bft)
19.11.2018 17:45 3,4 C 76 % 1016,3 hPa 0,0 mm 2,5 km/h (1 Bft) NE 34 0 min -0,4 C 3,4 C 16,1 km/h (3 Bft)
19.11.2018 17:30 3,4 C 77 % 1016,3 hPa 0,0 mm 5,2 km/h (1 Bft) SE 124 0 min -0,2 C 2,2 C 19,3 km/h (3 Bft)
19.11.2018 17:15 3,4 C 77 % 1016,3 hPa 0,0 mm 2,3 km/h (1 Bft) N-NE 21 0 min -0,2 C 3,4 C 16,1 km/h (3 Bft)
19.11.2018 17:00 3,4 C 77 % 1016,4 hPa 0,0 mm 5,0 km/h (1 Bft) E-SE 116 0 min -0,2 C 2,3 C 27,4 km/h (4 Bft)
19.11.2018 16:45 3,4 C 78 % 1016,3 hPa 0,0 mm 3,8 km/h (1 Bft) E 100 0 min -0,1 C 3,4 C 17,7 km/h (3 Bft)
19.11.2018 16:30 3,6 C 77 % 1016,2 hPa 0,0 mm 6,2 km/h (2 Bft) E-NE 68 0 min -0,0 C 2,0 C 25,7 km/h (4 Bft)
19.11.2018 16:15 3,7 C 78 % 1016,3 hPa 0,0 mm 5,6 km/h (1 Bft) E-SE 121 0 min 0,2 C 2,4 C 16,1 km/h (3 Bft)
19.11.2018 16:00 3,8 C 80 % 1016,2 hPa 0,0 mm 4,0 km/h (1 Bft) NE 50 0 min 0,7 C 3,8 C 17,7 km/h (3 Bft)
19.11.2018 15:45 3,8 C 81 % 1016,2 hPa 0,0 mm 10,7 km/h (2 Bft) E 91 0 min 0,8 C 1,1 C 29,0 km/h (5 Bft)
19.11.2018 15:30 3,8 C 80 % 1016,2 hPa 0,0 mm 8,8 km/h (2 Bft) NE 51 0 min 0,7 C 1,5 C 22,5 km/h (4 Bft)
19.11.2018 15:15 3,8 C 81 % 1016,2 hPa 0,0 mm 8,1 km/h (2 Bft) N-NE 32 0 min 0,8 C 1,7 C 20,9 km/h (4 Bft)
19.11.2018 15:00 3,7 C 83 % 1016,3 hPa 0,0 mm 6,8 km/h (2 Bft) N 7 0 min 1,1 C 2,0 C 17,7 km/h (3 Bft)
19.11.2018 14:45 3,5 C 85 % 1016,4 hPa 0,0 mm 6,8 km/h (2 Bft) E 84 0 min 1,2 C 1,7 C 24,1 km/h (4 Bft)
19.11.2018 14:30 3,3 C 87 % 1016,5 hPa 0,0 mm 11,0 km/h (2 Bft) E-SE 122 0 min 1,3 C 0,4 C 24,1 km/h (4 Bft)
19.11.2018 14:15 3,4 C 86 % 1016,6 hPa 0,0 mm 12,4 km/h (3 Bft) E-NE 57 0 min 1,3 C 0,2 C 22,5 km/h (4 Bft)
19.11.2018 14:00 4,0 C 83 % 1016,5 hPa 0,0 mm 9,2 km/h (2 Bft) N-NE 28 0 min 1,4 C 1,7 C 19,3 km/h (3 Bft)
19.11.2018 13:45 3,9 C 83 % 1016,6 hPa 0,0 mm 9,6 km/h (2 Bft) NE 53 0 min 1,3 C 1,4 C 19,3 km/h (3 Bft)
19.11.2018 13:30 4,1 C 82 % 1016,7 hPa 0,0 mm 7,2 km/h (2 Bft) NE 46 0 min 1,3 C 2,3 C 25,7 km/h (4 Bft)
19.11.2018 13:15 4,2 C 81 % 1016,9 hPa 0,0 mm 6,5 km/h (2 Bft) E-NE 66 0 min 1,2 C 2,6 C 19,3 km/h (3 Bft)
19.11.2018 13:00 4,2 C 79 % 1017,1 hPa 0,0 mm 11,6 km/h (2 Bft) E-NE 63 0 min 0,9 C 1,4 C 30,6 km/h (5 Bft)
19.11.2018 12:45 4,2 C 80 % 1017,2 hPa 0,0 mm 10,8 km/h (2 Bft) N-NE 19 0 min 1,1 C 1,5 C 22,5 km/h (4 Bft)
19.11.2018 12:30 4,1 C 81 % 1017,4 hPa 0,0 mm 8,5 km/h (2 Bft) NE 48 0 min 1,1 C 1,9 C 29,0 km/h (5 Bft)
19.11.2018 12:15 4,1 C 81 % 1017,5 hPa 0,0 mm 11,6 km/h (2 Bft) N-NE 30 0 min 1,1 C 1,2 C 30,6 km/h (5 Bft)
19.11.2018 12:00 4,1 C 82 % 1017,5 hPa 0,0 mm 11,2 km/h (2 Bft) N-NE 17 0 min 1,3 C 1,3 C 30,6 km/h (5 Bft)
19.11.2018 11:45 4,2 C 80 % 1017,7 hPa 0,0 mm 10,6 km/h (2 Bft) E-NE 62 0 min 1,1 C 1,6 C 27,4 km/h (4 Bft)
19.11.2018 11:30 4,1 C 81 % 1017,9 hPa 0,3 mm 10,7 km/h (2 Bft) N-NE 23 0 min 1,1 C 1,4 C 24,1 km/h (4 Bft)
19.11.2018 11:15 4,0 C 81 % 1018,1 hPa 0,0 mm 8,3 km/h (2 Bft) N-NE 18 0 min 1,0 C 1,9 C 17,7 km/h (3 Bft)
19.11.2018 11:00 4,2 C 78 % 1018,3 hPa 0,0 mm 13,1 km/h (3 Bft) NE 36 0 min 0,7 C 1,1 C 29,0 km/h (5 Bft)
19.11.2018 10:45 4,2 C 78 % 1018,4 hPa 0,0 mm 8,7 km/h (2 Bft) NE 45 0 min 0,7 C 2,0 C 24,1 km/h (4 Bft)
19.11.2018 10:30 4,2 C 78 % 1018,6 hPa 0,0 mm 6,9 km/h (2 Bft) E-NE 65 0 min 0,7 C 2,5 C 17,7 km/h (3 Bft)
19.11.2018 10:15 4,1 C 78 % 1018,7 hPa 0,0 mm 6,2 km/h (2 Bft) NE 50 15 min 0,6 C 2,6 C 16,1 km/h (3 Bft)
19.11.2018 10:00 4,2 C 78 % 1018,8 hPa 0,0 mm 5,6 km/h (1 Bft) E 97 0 min 0,7 C 2,9 C 16,1 km/h (3 Bft)
19.11.2018 09:45 4,0 C 78 % 1018,7 hPa 0,0 mm 11,6 km/h (2 Bft) N 356 15 min 0,5 C 1,1 C 22,5 km/h (4 Bft)
19.11.2018 09:30 3,9 C 79 % 1018,9 hPa 0,0 mm 10,2 km/h (2 Bft) NE 37 0 min 0,6 C 1,3 C 22,5 km/h (4 Bft)
19.11.2018 09:15 3,9 C 79 % 1019,0 hPa 0,0 mm 8,9 km/h (2 Bft) N-NE 20 0 min 0,6 C 1,6 C 19,3 km/h (3 Bft)
19.11.2018 09:00 3,8 C 80 % 1019,1 hPa 0,0 mm 7,3 km/h (2 Bft) N-NE 18 0 min 0,7 C 1,9 C 20,9 km/h (4 Bft)
19.11.2018 08:45 3,8 C 80 % 1019,0 hPa 0,0 mm 7,5 km/h (2 Bft) NE 45 0 min 0,7 C 1,9 C 19,3 km/h (3 Bft)
19.11.2018 08:30 3,7 C 82 % 1019,0 hPa 0,0 mm 7,0 km/h (2 Bft) N 355 0 min 0,9 C 1,9 C 14,5 km/h (3 Bft)
19.11.2018 08:15 3,8 C 82 % 1019,0 hPa 0,0 mm 7,1 km/h (2 Bft) NE 53 0 min 1,0 C 2,0 C 17,7 km/h (3 Bft)
19.11.2018 08:00 3,8 C 82 % 1019,2 hPa 0,0 mm 10,1 km/h (2 Bft) N-NE 30 0 min 1,0 C 1,2 C 22,5 km/h (4 Bft)
19.11.2018 07:45 3,8 C 83 % 1019,2 hPa 0,0 mm 8,3 km/h (2 Bft) N-NE 22 0 min 1,2 C 1,6 C 17,7 km/h (3 Bft)
19.11.2018 07:30 3,8 C 84 % 1019,2 hPa 0,0 mm 8,7 km/h (2 Bft) N-NE 18 0 min 1,4 C 1,5 C 17,7 km/h (3 Bft)
19.11.2018 07:15 3,7 C 85 % 1019,2 hPa 0,0 mm 6,9 km/h (2 Bft) N-NE 21 0 min 1,4 C 1,9 C 14,5 km/h (3 Bft)
19.11.2018 07:00 3,7 C 87 % 1019,2 hPa 0,0 mm 4,6 km/h (1 Bft) N-NO 340 0 min 1,7 C 2,8 C 16,1 km/h (3 Bft)
19.11.2018 06:45 3,7 C 88 % 1019,2 hPa 0,0 mm 6,5 km/h (2 Bft) N 1 0 min 1,9 C 2,1 C 16,1 km/h (3 Bft)
19.11.2018 06:30 3,7 C 89 % 1019,3 hPa 0,0 mm 8,4 km/h (2 Bft) N 11 0 min 2,1 C 1,5 C 24,1 km/h (4 Bft)
19.11.2018 06:15 3,6 C 90 % 1019,3 hPa 0,0 mm 7,1 km/h (2 Bft) N-NE 13 0 min 2,1 C 1,8 C 17,7 km/h (3 Bft)
19.11.2018 06:00 3,6 C 92 % 1019,4 hPa 0,0 mm 5,8 km/h (2 Bft) N 357 0 min 2,4 C 2,2 C 12,9 km/h (3 Bft)
19.11.2018 05:45 3,4 C 92 % 1019,6 hPa 0,0 mm 6,6 km/h (2 Bft) N 4 0 min 2,2 C 1,7 C 14,5 km/h (3 Bft)
19.11.2018 05:30 3,5 C 93 % 1019,8 hPa 0,0 mm 6,9 km/h (2 Bft) NE 36 0 min 2,5 C 1,7 C 17,7 km/h (3 Bft)
19.11.2018 05:15 3,5 C 94 % 1019,8 hPa 0,0 mm 7,6 km/h (2 Bft) N-NE 22 0 min 2,6 C 1,5 C 20,9 km/h (4 Bft)
19.11.2018 05:00 3,2 C 95 % 1019,8 hPa 0,0 mm 3,0 km/h (1 Bft) N-NE 21 0 min 2,5 C 3,2 C 12,9 km/h (3 Bft)
19.11.2018 04:45 3,1 C 95 % 1020,0 hPa 0,0 mm 5,5 km/h (1 Bft) N-NO 328 0 min 2,4 C 1,7 C 12,9 km/h (3 Bft)
19.11.2018 04:30 2,8 C 95 % 1020,2 hPa 0,0 mm 2,9 km/h (1 Bft) N-NO 348 0 min 2,1 C 2,8 C 11,3 km/h (2 Bft)
19.11.2018 04:15 2,6 C 95 % 1020,3 hPa 0,0 mm 3,8 km/h (1 Bft) N-NO 330 0 min 1,9 C 2,6 C 11,3 km/h (2 Bft)
19.11.2018 04:00 2,5 C 95 % 1020,3 hPa 0,0 mm 2,3 km/h (1 Bft) NO 316 0 min 1,8 C 2,5 C 6,4 km/h (2 Bft)
19.11.2018 03:45 2,5 C 95 % 1020,5 hPa 0,0 mm 3,8 km/h (1 Bft) NO 309 0 min 1,8 C 2,5 C 9,7 km/h (2 Bft)
19.11.2018 03:30 2,5 C 95 % 1020,5 hPa 0,0 mm 2,0 km/h (1 Bft) NO 309 0 min 1,8 C 2,5 C 6,4 km/h (2 Bft)
19.11.2018 03:15 2,6 C 95 % 1020,9 hPa 0,0 mm 4,5 km/h (1 Bft) NO 320 0 min 1,9 C 2,6 C 11,3 km/h (2 Bft)
19.11.2018 03:00 2,7 C 95 % 1020,9 hPa 0,0 mm 5,3 km/h (1 Bft) NO 319 0 min 2,0 C 1,3 C 11,3 km/h (2 Bft)
19.11.2018 02:45 2,8 C 95 % 1021,2 hPa 0,0 mm 6,6 km/h (2 Bft) NO 311 0 min 2,1 C 1,0 C 12,9 km/h (3 Bft)
19.11.2018 02:30 2,7 C 95 % 1021,3 hPa 0,0 mm 6,2 km/h (2 Bft) N-NO 340 0 min 2,0 C 1,0 C 16,1 km/h (3 Bft)
19.11.2018 02:15 2,6 C 95 % 1021,6 hPa 0,0 mm 8,9 km/h (2 Bft) N-NO 330 0 min 1,9 C 0,1 C 16,1 km/h (3 Bft)
19.11.2018 02:00 2,6 C 95 % 1021,7 hPa 0,0 mm 7,1 km/h (2 Bft) NO 317 0 min 1,9 C 0,6 C 12,9 km/h (3 Bft)
19.11.2018 01:45 2,6 C 95 % 1021,9 hPa 0,0 mm 8,1 km/h (2 Bft) NO 316 0 min 1,9 C 0,3 C 12,9 km/h (3 Bft)
19.11.2018 01:30 2,4 C 94 % 1022,1 hPa 0,0 mm 7,3 km/h (2 Bft) N-NO 330 0 min 1,5 C 0,3 C 12,9 km/h (3 Bft)
19.11.2018 01:15 2,3 C 94 % 1022,3 hPa 0,0 mm 4,9 km/h (1 Bft) NO 319 0 min 1,4 C 1,1 C 12,9 km/h (3 Bft)
19.11.2018 01:00 2,3 C 94 % 1022,4 hPa 0,0 mm 6,1 km/h (2 Bft) NO 319 0 min 1,4 C 0,6 C 12,9 km/h (3 Bft)
19.11.2018 00:45 2,1 C 94 % 1022,6 hPa 0,0 mm 7,9 km/h (2 Bft) N-NO 346 0 min 1,2 C -0,2 C 14,5 km/h (3 Bft)
19.11.2018 00:30 1,9 C 94 % 1022,8 hPa 0,0 mm 8,9 km/h (2 Bft) N-NO 340 0 min 1,0 C -0,8 C 14,5 km/h (3 Bft)
19.11.2018 00:15 1,8 C 94 % 1023,1 hPa 0,0 mm 6,7 km/h (2 Bft) N-NO 340 0 min 0,9 C -0,2 C 16,1 km/h (3 Bft)
19.11.2018 00:00 1,8 C 93 % 1023,1 hPa 0,0 mm 10,6 km/h (2 Bft) N-NO 336 0 min 0,8 C -1,3 C 16,1 km/h (3 Bft)
18.11.2018 22:45 1,4 C 92 % 1024,0 hPa 0,0 mm 15,3 km/h (3 Bft) NO 313 0 min 0,2 C -2,7 C 25,7 km/h (4 Bft)
18.11.2018 22:30 1,2 C 92 % 1024,0 hPa 0,0 mm 13,8 km/h (3 Bft) NO 311 0 min 0,0 C -2,7 C 22,5 km/h (4 Bft)
18.11.2018 22:15 1,1 C 91 % 1024,1 hPa 0,0 mm 11,5 km/h (2 Bft) N-NO 342 0 min -0,2 C -2,4 C 17,7 km/h (3 Bft)
18.11.2018 22:00 1,1 C 90 % 1024,4 hPa 0,0 mm 10,5 km/h (2 Bft) N-NO 328 0 min -0,4 C -2,1 C 17,7 km/h (3 Bft)
18.11.2018 21:45 1,2 C 89 % 1024,8 hPa 0,0 mm 12,1 km/h (2 Bft) N-NO 346 0 min -0,4 C -2,4 C 19,3 km/h (3 Bft)
18.11.2018 21:30 1,2 C 87 % 1024,9 hPa 0,0 mm 11,3 km/h (2 Bft) NO 323 0 min -0,7 C -2,2 C 17,7 km/h (3 Bft)
18.11.2018 21:15 1,3 C 85 % 1024,9 hPa 0,0 mm 11,5 km/h (2 Bft) NO 317 0 min -0,9 C -2,1 C 17,7 km/h (3 Bft)
18.11.2018 21:00 1,4 C 84 % 1025,0 hPa 0,0 mm 11,9 km/h (2 Bft) NO 317 0 min -1,0 C -2,1 C 17,7 km/h (3 Bft)
_ Min-Heure 22:00 18:00 20:00 - 18:45 - - - 21:00 22:45 03:30
Minimum _ 1,1 C 75 % 1015,9 hPa - 0,6 km/h (0 Bft) - - - -1,0 C -2,7 C 6,4 km/h (2 Bft)
_ Max-Heure 10:00 01:45 21:00 11:30 22:45 - - 09:45 05:15 16:00 12:00
Maximum _ 4,2 C 95 % 1025,0 hPa 0,3 mm 15,3 km/h
NO (3 Bft)
- - 15 min 2,6 C 3,8 C 30,6 km/h
N-NE (5 Bft)
Moyenne _ 3,0 C 85 % 1019,6 hPa #0,3 mm 7,9 km/h (2 Bft) N-NE - #30 min. 0,8 C 1,0 C 18,5 km/h (3 Bft)